Weather History for KGEV - April, 2013

Change the Weather History Date:

Sunday, April 21, 2013

  Actual Average Record
Temperature  
Mean Temperature 44 °F -  
Max Temperature 52 °F 65 °F 80 °F (1985)
Min Temperature 37 °F 41 °F 29 °F (1981)
Degree Days  
Heating Degree Days 20    
Moisture  
Dew Point 24 °F    
Average Humidity 45    
Maximum Humidity 61    
Minimum Humidity 35    
Precipitation  
Precipitation 0.00 in - - ()
Sea Level Pressure  
Sea Level Pressure 30.38 in    
Wind  
Wind Speed 3 mph (SE)    
Max Wind Speed 10 mph    
Max Gust Speed 9 mph    
Visibility 10 miles    
Events      
Averages and records for this station are not official NWS values.
T = Trace of Precipitation, MM = Missing Value Source: NWS Daily Summary

Daily Weather History Graph

Daily Weather History Graph

Search for Another Location

Airport or City:

Trip Planner

Search our weather history database for the weather conditions in past years. The results will help you decide how hot, cold, wet, or windy it might be!

Date:

Astronomy

Apr. 21, 2013 Rise Set
Actual Time 6:43 AM EDT 8:05 PM EDT
Civil Twilight 6:17 AM EDT 8:32 PM EDT
Nautical Twilight 5:44 AM EDT 9:04 PM EDT
Astronomical Twilight 5:11 AM EDT 9:38 PM EDT
Moon 3:55 PM EDT (4/21) 3:57 AM EDT (4/21)
Length of Visible Light 14h 15m
Length of Day
13h 21m
Waxing Gibbous, 79% of the Moon is Illuminated
Apr 21
Waxing Gibbous
Apr 25
Full
May 2
Last Quarter
May 9
New
May 18
First Quarter

Hourly Weather History & Observations

Time (EDT) Temp. Windchill Dew Point Humidity Pressure Visibility Wind Dir Wind Speed Gust Speed Precip Events Conditions
12:15 AM 42.6 °F - 18.5 °F 38% 30.28 in 10.0 mi Calm Calm - N/A   Clear
12:35 AM 43.0 °F - 18.5 °F 37% 30.28 in 10.0 mi Calm Calm - N/A   Clear
12:55 AM 42.4 °F - 18.7 °F 39% 30.29 in 10.0 mi Calm Calm - N/A   Clear
1:15 AM 40.8 °F - 19.0 °F 42% 30.29 in 10.0 mi Calm Calm - N/A   Clear
1:35 AM 37.6 °F 32.3 °F 20.7 °F 51% 30.29 in 10.0 mi NNW 6.9 mph - N/A   Clear
1:55 AM 38.5 °F 34.1 °F 21.2 °F 50% 30.29 in 10.0 mi NNW 5.8 mph - N/A   Clear
2:15 AM 40.1 °F 36.1 °F 19.4 °F 43% 30.29 in 10.0 mi NNW 5.8 mph - N/A   Clear
2:35 AM 39.7 °F 35.6 °F 19.4 °F 44% 30.28 in 10.0 mi NNW 5.8 mph - N/A   Clear
5:35 AM 39.2 °F - 17.2 °F 41% 30.33 in 10.0 mi Calm Calm - N/A   Clear
5:55 AM 39.0 °F - 17.6 °F 42% 30.33 in 10.0 mi Calm Calm - N/A   Clear
6:15 AM 38.8 °F - 17.8 °F 43% 30.34 in 10.0 mi Calm Calm - N/A   Clear
6:35 AM 38.3 °F - 18.1 °F 44% 30.35 in 10.0 mi Calm Calm - N/A   Clear
6:55 AM 38.3 °F - 18.1 °F 44% 30.36 in 10.0 mi Calm Calm - N/A   Clear
7:15 AM 37.8 °F - 18.3 °F 46% 30.37 in 10.0 mi Calm Calm - N/A   Clear
7:35 AM 38.3 °F - 18.3 °F 45% 30.38 in 10.0 mi Calm Calm - N/A   Clear
7:55 AM 38.8 °F - 19.4 °F 46% 30.39 in 10.0 mi Calm Calm - N/A   Clear
8:15 AM 39.0 °F - 21.6 °F 50% 30.40 in 10.0 mi Calm Calm - N/A   Clear
8:35 AM 38.8 °F - 21.7 °F 50% 30.41 in 10.0 mi Calm Calm - N/A   Clear
8:55 AM 40.1 °F - 22.3 °F 49% 30.41 in 10.0 mi Calm Calm - N/A   Clear
9:15 AM 41.2 °F - 20.8 °F 44% 30.42 in 10.0 mi Calm Calm - N/A   Clear
9:35 AM 41.9 °F - 22.5 °F 46% 30.43 in 10.0 mi Calm Calm - N/A   Clear
10:15 AM 43.5 °F 40.9 °F 22.3 °F 43% 30.43 in 10.0 mi South 4.6 mph - N/A   Clear
10:35 AM 44.2 °F - 22.6 °F 42% 30.43 in 10.0 mi Calm Calm - N/A   Clear
10:55 AM 45.5 °F 43.2 °F 24.3 °F 43% 30.43 in 10.0 mi ESE 4.6 mph - N/A   Clear
11:15 AM 44.6 °F 42.2 °F 22.8 °F 42% 30.44 in 10.0 mi ESE 4.6 mph - N/A   Clear
11:35 AM 45.0 °F 40.6 °F 21.9 °F 40% 30.43 in 10.0 mi East 8.1 mph - N/A   Clear
11:55 AM 45.3 °F 43.0 °F 21.0 °F 38% 30.43 in 10.0 mi ESE 4.6 mph - N/A   Clear
12:15 PM 46.2 °F 42.2 °F 22.3 °F 39% 30.43 in 10.0 mi ESE 8.1 mph - N/A   Clear
12:35 PM 47.3 °F - 23.2 °F 39% 30.42 in 10.0 mi SE 4.6 mph 9.2 mph N/A   Clear
12:55 PM 47.5 °F - 21.2 °F 35% 30.41 in 10.0 mi ESE 3.5 mph - N/A   Clear
1:15 PM 49.5 °F - 25.9 °F 40% 30.40 in 10.0 mi SE 8.1 mph - N/A   Clear
1:35 PM 51.1 °F - 24.6 °F 36% 30.40 in 10.0 mi SE 3.5 mph - N/A   Clear
1:55 PM 50.0 °F - 24.6 °F 37% 30.39 in 10.0 mi East 6.9 mph - N/A   Clear
2:15 PM 49.6 °F - 25.9 °F 40% 30.39 in 10.0 mi Calm Calm - N/A   Clear
2:35 PM 51.8 °F - 26.1 °F 37% 30.39 in 10.0 mi SSE 4.6 mph - N/A   Clear
2:55 PM 51.6 °F - 25.5 °F 36% 30.38 in 10.0 mi SE 3.5 mph - N/A   Clear
3:15 PM 51.3 °F - 25.0 °F 36% 30.39 in 10.0 mi SSW 5.8 mph - N/A   Scattered Clouds
3:35 PM 51.6 °F - 26.4 °F 38% 30.38 in 10.0 mi ESE 10.4 mph - N/A   Scattered Clouds
4:15 PM 52.0 °F - 27.3 °F 39% 30.38 in 10.0 mi East 6.9 mph - N/A   Clear
4:35 PM 51.6 °F - 27.3 °F 39% 30.37 in 10.0 mi SSE 3.5 mph - N/A   Scattered Clouds
4:55 PM 51.1 °F - 26.2 °F 38% 30.37 in 10.0 mi SE 4.6 mph - N/A   Clear
5:15 PM 51.6 °F - 25.2 °F 36% 30.36 in 10.0 mi ESE 8.1 mph - N/A   Clear
5:35 PM 51.3 °F - 25.0 °F 36% 30.36 in 10.0 mi ESE 8.1 mph - N/A   Clear
5:55 PM 49.8 °F - 26.6 °F 41% 30.36 in 10.0 mi SE 8.1 mph - N/A   Clear
6:15 PM 49.3 °F - 27.5 °F 43% 30.36 in 10.0 mi ESE 8.1 mph - N/A   Clear
6:55 PM 48.6 °F - 27.9 °F 45% 30.37 in 10.0 mi SE 6.9 mph - N/A   Clear
7:15 PM 47.7 °F - 28.8 °F 48% 30.37 in 10.0 mi ESE 9.2 mph - N/A   Clear
7:35 PM 46.8 °F - 28.2 °F 49% 30.37 in 10.0 mi SE 5.8 mph - N/A   Clear
7:55 PM 46.0 °F 43.1 °F 27.7 °F 49% 30.38 in 10.0 mi SE 5.8 mph - N/A   Clear
8:15 PM 45.5 °F 43.2 °F 27.5 °F 49% 30.38 in 10.0 mi SE 4.6 mph - N/A   Scattered Clouds
8:35 PM 45.1 °F 42.8 °F 29.1 °F 54% 30.39 in 10.0 mi SE 4.6 mph - N/A   Mostly Cloudy
9:15 PM 44.8 °F 42.4 °F 29.3 °F 55% 30.41 in 10.0 mi SE 4.6 mph - N/A   Overcast
9:35 PM 44.6 °F 41.4 °F 29.7 °F 56% 30.42 in 10.0 mi ESE 5.8 mph - N/A   Overcast
10:15 PM 42.8 °F 40.1 °F 29.5 °F 59% 30.43 in 10.0 mi SE 4.6 mph - N/A   Clear
10:35 PM 42.8 °F 41.1 °F 29.7 °F 60% 30.43 in 10.0 mi SE 3.5 mph - N/A   Mostly Cloudy
10:55 PM 42.4 °F 39.6 °F 29.8 °F 61% 30.43 in 10.0 mi SE 4.6 mph - N/A   Overcast
11:15 PM 42.4 °F 38.1 °F 30.0 °F 61% 30.42 in 10.0 mi ESE 6.9 mph - N/A   Overcast
11:35 PM 42.8 °F 41.1 °F 30.2 °F 61% 30.42 in 10.0 mi SE 3.5 mph - N/A   Overcast
11:55 PM 42.8 °F 37.5 °F 30.2 °F 61% 30.42 in 10.0 mi ESE 9.2 mph - N/A   Overcast